• In Österreich
  • Länderverzeichnis
  • Für 7 Tage
  • Wassertemperatur
  • Satellitenkarten
  • Wetterkarte
  • News
  • Widgets
  • user-avatar
    Anmelden

    Stündliche Wetter Penonomé

    Heute, 21 Oktober, Sonntag

    Zeit Temperatur Niederschläge Wind Luftdruck Luftfeuchtigkeit
    00:00 +26°C° 0.1 mm 1 m/S 748 mmHg 89%
    01:00 +25°C° 0 mm 1 m/S 748 mmHg 89%
    02:00 +25°C° 0.2 mm 2 m/S 748 mmHg 89%
    03:00 +25°C° 0.2 mm 2 m/S 748 mmHg 89%
    04:00 +25°C° 0.2 mm 2 m/S 748 mmHg 89%
    05:00 +25°C° 0.2 mm 2 m/S 748 mmHg 89%
    06:00 +26°C° 0.2 mm 2 m/S 748 mmHg 90%
    07:00 +26°C° 0 mm 2 m/S 749 mmHg 90%
    08:00 +27°C° 0.8 mm 2 m/S 749 mmHg 87%
    09:00 +28°C° 0.8 mm 3 m/S 749 mmHg 84%
    10:00 +29°C° 0.8 mm 3 m/S 750 mmHg 81%
    11:00 +29°C° 2 mm 3 m/S 749 mmHg 81%
    12:00 +29°C° 2 mm 3 m/S 749 mmHg 82%
    13:00 +29°C° 2 mm 4 m/S 748 mmHg 83%
    14:00 +28°C° 1 mm 3 m/S 748 mmHg 85%
    15:00 +28°C° 1 mm 3 m/S 748 mmHg 87%
    16:00 +27°C° 1 mm 3 m/S 748 mmHg 89%
    17:00 +27°C° 0.3 mm 3 m/S 748 mmHg 89%
    18:00 +26°C° 0.3 mm 3 m/S 748 mmHg 90%
    19:00 +26°C° 0.3 mm 3 m/S 748 mmHg 91%
    20:00 +26°C° 0 mm 2 m/S 749 mmHg 91%
    21:00 +25°C° 0 mm 2 m/S 749 mmHg 90%
    22:00 +25°C° 0 mm 2 m/S 750 mmHg 90%
    23:00 +25°C° 0 mm 2 m/S 749 mmHg 90%

    Morgen, 22 Oktober, Montag

    Zeit Temperatur Niederschläge Wind Luftdruck Luftfeuchtigkeit
    00:00 +25°C° 0 mm 2 m/S 749 mmHg 90%
    01:00 +25°C° 0 mm 2 m/S 749 mmHg 89%
    02:00 +25°C° 0.1 mm 2 m/S 749 mmHg 90%
    03:00 +25°C° 0.1 mm 2 m/S 748 mmHg 90%
    04:00 +25°C° 0.1 mm 2 m/S 748 mmHg 90%
    05:00 +25°C° 0.2 mm 2 m/S 749 mmHg 90%
    06:00 +25°C° 0.2 mm 2 m/S 749 mmHg 91%
    07:00 +25°C° 0.2 mm 2 m/S 749 mmHg 91%
    08:00 +26°C° 0.3 mm 2 m/S 750 mmHg 90%
    09:00 +26°C° 0.3 mm 2 m/S 750 mmHg 89%
    10:00 +27°C° 0.3 mm 3 m/S 751 mmHg 87%
    11:00 +27°C° 0.2 mm 3 m/S 750 mmHg 86%
    12:00 +28°C° 0.2 mm 3 m/S 750 mmHg 84%
    13:00 +28°C° 0.2 mm 3 m/S 749 mmHg 82%
    14:00 +28°C° 0.1 mm 3 m/S 749 mmHg 82%
    15:00 +28°C° 0.1 mm 3 m/S 748 mmHg 82%
    16:00 +28°C° 0.1 mm 3 m/S 748 mmHg 82%
    17:00 +27°C° 0 mm 3 m/S 748 mmHg 83%
    18:00 +26°C° 0 mm 3 m/S 748 mmHg 85%
    19:00 +26°C° 0 mm 2 m/S 749 mmHg 87%
    20:00 +26°C° 0 mm 2 m/S 749 mmHg 86%
    21:00 +25°C° 0 mm 2 m/S 750 mmHg 85%
    22:00 +25°C° 0 mm 2 m/S 750 mmHg 84%
    23:00 +25°C° 0.1 mm 2 m/S 750 mmHg 85%

    übermorgen, 23 Oktober, Dienstag

    Zeit Temperatur Niederschläge Wind Luftdruck Luftfeuchtigkeit
    00:00 +25°C° 0.1 mm 2 m/S 750 mmHg 85%
    01:00 +25°C° 0.1 mm 2 m/S 749 mmHg 85%
    02:00 +25°C° 0.1 mm 2 m/S 749 mmHg 85%
    03:00 +25°C° 0.1 mm 2 m/S 749 mmHg 86%
    04:00 +25°C° 0.1 mm 2 m/S 749 mmHg 86%
    05:00 +25°C° 0.1 mm 2 m/S 749 mmHg 87%
    06:00 +25°C° 0.1 mm 2 m/S 749 mmHg 88%
    07:00 +25°C° 0.1 mm 2 m/S 750 mmHg 88%
    08:00 +27°C° 0.1 mm 2 m/S 750 mmHg 83%
    09:00 +28°C° 0.1 mm 2 m/S 751 mmHg 78%
    10:00 +30°C° 0.1 mm 3 m/S 751 mmHg 74%
    11:00 +30°C° 0.4 mm 3 m/S 750 mmHg 72%
    12:00 +31°C° 0.4 mm 3 m/S 750 mmHg 70%
    13:00 +31°C° 0.4 mm 3 m/S 749 mmHg 67%
    14:00 +31°C° 0.9 mm 3 m/S 749 mmHg 69%
    15:00 +31°C° 0.9 mm 3 m/S 748 mmHg 70%
    16:00 +30°C° 0.9 mm 3 m/S 748 mmHg 72%
    17:00 +29°C° 0.4 mm 2 m/S 748 mmHg 76%
    18:00 +28°C° 0.4 mm 2 m/S 748 mmHg 80%
    19:00 +27°C° 0.4 mm 2 m/S 749 mmHg 84%
    20:00 +26°C° 0.1 mm 2 m/S 749 mmHg 85%
    21:00 +26°C° 0.1 mm 2 m/S 750 mmHg 85%
    22:00 +26°C° 0.1 mm 2 m/S 750 mmHg 85%
    23:00 +26°C° 0.1 mm 2 m/S 750 mmHg 86%

    24 Oktober, Mittwoch

    Zeit Temperatur Niederschläge Wind Luftdruck Luftfeuchtigkeit
    00:00 +25°C° 0.1 mm 2 m/S 750 mmHg 86%
    01:00 +25°C° 0.1 mm 2 m/S 750 mmHg 86%
    02:00 +25°C° 0.1 mm 2 m/S 750 mmHg 86%
    03:00 +25°C° 0.1 mm 2 m/S 749 mmHg 87%
    04:00 +25°C° 0.1 mm 2 m/S 749 mmHg 87%
    05:00 +25°C° 0 mm 2 m/S 749 mmHg 87%
    06:00 +25°C° 0 mm 2 m/S 749 mmHg 88%
    07:00 +25°C° 0 mm 2 m/S 750 mmHg 88%
    08:00 +27°C° 0 mm 2 m/S 750 mmHg 82%
    09:00 +29°C° 0 mm 2 m/S 750 mmHg 76%
    10:00 +30°C° 0 mm 2 m/S 751 mmHg 69%
    11:00 +31°C° 0.1 mm 2 m/S 750 mmHg 67%
    12:00 +32°C° 0.1 mm 2 m/S 750 mmHg 64%
    13:00 +32°C° 0.1 mm 2 m/S 749 mmHg 62%
    14:00 +32°C° 0.6 mm 2 m/S 748 mmHg 64%
    15:00 +32°C° 0.6 mm 2 m/S 748 mmHg 66%
    16:00 +31°C° 0.6 mm 2 m/S 747 mmHg 68%
    17:00 +30°C° 0.5 mm 2 m/S 748 mmHg 74%
    18:00 +28°C° 0.5 mm 2 m/S 748 mmHg 80%
    19:00 +27°C° 0.5 mm 1 m/S 748 mmHg 86%
    20:00 +26°C° 0.1 mm 1 m/S 749 mmHg 87%
    21:00 +26°C° 0.1 mm 1 m/S 749 mmHg 88%
    22:00 +26°C° 0.1 mm 1 m/S 750 mmHg 89%
    23:00 +26°C° 0 mm 2 m/S 750 mmHg 88%

    25 Oktober, Donnerstag

    Zeit Temperatur Niederschläge Wind Luftdruck Luftfeuchtigkeit
    00:00 +25°C° 0 mm 2 m/S 749 mmHg 87%
    01:00 +25°C° 0 mm 2 m/S 749 mmHg 87%
    02:00 +25°C° 0.1 mm 2 m/S 749 mmHg 86%
    03:00 +25°C° 0.1 mm 2 m/S 748 mmHg 85%
    04:00 +25°C° 0.1 mm 2 m/S 748 mmHg 85%
    05:00 +25°C° 0.1 mm 2 m/S 749 mmHg 85%
    06:00 +25°C° 0.1 mm 2 m/S 749 mmHg 85%
    07:00 +26°C° 0.1 mm 2 m/S 750 mmHg 85%
    08:00 +27°C° 0 mm 2 m/S 750 mmHg 78%
    09:00 +29°C° 0 mm 2 m/S 750 mmHg 72%
    10:00 +31°C° 0 mm 2 m/S 751 mmHg 66%
    11:00 +31°C° 0.5 mm 2 m/S 750 mmHg 66%
    12:00 +31°C° 0.5 mm 1 m/S 749 mmHg 66%
    13:00 +32°C° 0.5 mm 1 m/S 748 mmHg 66%
    14:00 +31°C° 1.4 mm 1 m/S 748 mmHg 69%
    15:00 +31°C° 1.4 mm 1 m/S 747 mmHg 72%
    16:00 +30°C° 1.4 mm 1 m/S 747 mmHg 74%
    17:00 +29°C° 0.9 mm 1 m/S 747 mmHg 79%
    18:00 +28°C° 0.9 mm 1 m/S 748 mmHg 84%
    19:00 +27°C° 0.9 mm 1 m/S 748 mmHg 89%
    20:00 +27°C° 0.4 mm 1 m/S 748 mmHg 89%
    21:00 +26°C° 0.4 mm 1 m/S 749 mmHg 90%
    22:00 +26°C° 0.4 mm 1 m/S 749 mmHg 90%
    23:00 +26°C° 0.2 mm 1 m/S 749 mmHg 90%

    26 Oktober, Freitag

    Zeit Temperatur Niederschläge Wind Luftdruck Luftfeuchtigkeit
    00:00 +26°C° 0.2 mm 1 m/S 749 mmHg 90%
    01:00 +26°C° 0.2 mm 1 m/S 748 mmHg 89%
    02:00 +25°C° 0.2 mm 1 m/S 748 mmHg 89%
    03:00 +25°C° 0.2 mm 2 m/S 748 mmHg 88%
    04:00 +25°C° 0.2 mm 2 m/S 748 mmHg 87%
    05:00 +25°C° 0.1 mm 2 m/S 748 mmHg 87%
    06:00 +25°C° 0.1 mm 2 m/S 749 mmHg 86%
    07:00 +26°C° 0.1 mm 2 m/S 749 mmHg 85%
    08:00 +27°C° 0 mm 2 m/S 750 mmHg 81%
    09:00 +28°C° 0 mm 2 m/S 750 mmHg 76%
    10:00 +30°C° 0 mm 2 m/S 750 mmHg 71%
    11:00 +30°C° 0.1 mm 2 m/S 750 mmHg 71%
    12:00 +30°C° 0.1 mm 2 m/S 749 mmHg 71%
    13:00 +30°C° 0.1 mm 2 m/S 748 mmHg 70%
    14:00 +30°C° 0.2 mm 2 m/S 748 mmHg 71%
    15:00 +30°C° 0.2 mm 2 m/S 747 mmHg 73%
    16:00 +30°C° 0.2 mm 2 m/S 747 mmHg 74%
    17:00 +29°C° 0.3 mm 2 m/S 747 mmHg 78%
    18:00 +28°C° 0.3 mm 2 m/S 748 mmHg 82%
    19:00 +27°C° 0.3 mm 1 m/S 748 mmHg 86%
    20:00 +26°C° 0.1 mm 2 m/S 749 mmHg 87%
    21:00 +26°C° 0.1 mm 2 m/S 749 mmHg 88%
    22:00 +26°C° 0.1 mm 2 m/S 749 mmHg 88%
    23:00 +26°C° 0.1 mm 2 m/S 749 mmHg 87%
    Mehr zeigen